Regional Weather Roundup
Issued by NWS

Home | Current Version | Previous Version | Text Only | Print | Product List | Glossary On
Versions: 1 2 3 4 5 6 7 8 9 10 11 12 13 14 15 16 17 18 19 20 21 22 23 24 25 26 27 28 29 30 31 32 33 34 35 36 37 38 39 40 41 42 43 44 45 46 47 48 49 50
000
ASUS44 KFWD 272215
RWRTX
NORTH TEXAS HOURLY WEATHER ROUNDUP
NATIONAL WEATHER SERVICE FORT WORTH TX
500 PM CDT MON MAR 27 2017

NOTE: "FAIR" INDICATES FEW OR NO CLOUDS BELOW 12,000 FEET WITH NO
SIGNIFICANT WEATHER AND/OR OBSTRUCTIONS TO VISIBILITY.

TXZ118-119-272300-
DALLAS/FORT WORTH METROPLEX

CITY           SKY/WX    TMP DP  RH WIND       PRES   REMARKS
DFW AIRPORT    SUNNY     72  55  55 N8        29.86F
DALLAS LOVE    MOSUNNY   73  54  51 NE7       29.86F
FTW MEACHAM    SUNNY     75  53  46 E7        29.86F
DAL-EXECUTIVE  SUNNY     73  56  54 VRB3      29.86F
FTW-ALLIANCE   SUNNY     74  55  51 N6        29.86F
FTW-NAS-JRB    SUNNY     75  54  47 CALM      29.86F
FTW-SPINKS     SUNNY     75  52  43 NE6       29.88S
ARLINGTON      SUNNY     73  52  47 E5        29.86F
GRAND PRAIRIE  SUNNY     72  52  49 N7        29.88F
ADDISON        SUNNY     70  54  56 N5        29.88F
MESQUITE       SUNNY     70  54  56 N5        29.87F
LANCASTER      SUNNY     73  54  50 CALM      29.87S
$$

TXZ091>094-102>105-117-120-121-131>134-272300-
NORTH CENTRAL TEXAS

CITY           SKY/WX    TMP DP  RH WIND       PRES   REMARKS
SHRMAN/DENISON SUNNY     70  53  53 N6        29.88S
GAINESVILLE    SUNNY     72  51  46 E5        29.89S
BOWIE          SUNNY     74  50  43 CALM      29.87F
BRIDGEPORT     SUNNY     75  49  40 CALM      29.88F
DECATUR        SUNNY     75  50  41 CALM      29.86F
DENTON         SUNNY     73  56  54 NE7       29.86F
MCKINNEY       SUNNY     67  57  70 VRB3      29.87F
BONHAM         SUNNY     70  54  56 N6        29.88S
GREENVILLE     SUNNY     70  54  56 N5        29.88F
ROCKWALL       SUNNY     69  56  63 NE3       29.87F
TERRELL        SUNNY     73  54  51 CALM      29.87F
WAXAHACHIE     SUNNY     74  54  49 CALM      29.87F
CLEBURNE       HAZE      73  52  46 NE5G12    29.87F VSB<1/4
GRANBURY       SUNNY     78  51  39 N5        29.86F HAZE
$$

TXZ083>090-098>101-113>116-127>130-139>142-154-155-272300-
WESTERN NORTH TEXAS

CITY           SKY/WX    TMP DP  RH WIND       PRES   REMARKS
WICHITA FALLS  SUNNY     72  48  42 VRB5      29.86F
WF-KICKAPOO    SUNNY     72  48  42 N6        29.88F
VERNON         SUNNY     73  36  25 CALM      29.88F
ABILENE        SUNNY     77  45  32 NE6       29.85F
ABILENE-DYESS  SUNNY     77  47  34 E3        29.84F
GRAHAM         SUNNY     77  50  39 NE3       29.84F
BRECKENRIDGE   SUNNY     78  44  29 CALM      29.84F HAZE
CISCO          SUNNY     75  46  35 N6G13     29.87F
RANGER         SUNNY     77  45  31 E5        29.86F
MINERAL WELLS  SUNNY     78  48  34 NE5       29.83F
STEPHENVILLE   SUNNY     78  46  32 N3        29.87F
COMANCHE       SUNNY     79  48  33 E8        29.85F
BROWNWOOD      SUNNY     81  46  30 E9        29.84F
COLEMAN        SUNNY     80  44  27 N3        29.84F
$$

TXZ143>147-156>162-174-175-272300-
CENTRAL TEXAS

CITY           SKY/WX    TMP DP  RH WIND       PRES   REMARKS
WACO           SUNNY     77  60  55 SE6       29.84F
WACO-MCGREGOR  SUNNY     78  59  51 CALM      29.84F
HILLSBORO      SUNNY     76  58  54 CALM      29.85F
CORSICANA      SUNNY     78  62  57 SW6       29.85F HAZE
MEXIA          SUNNY     79  63  58 NW9       29.84F
HEARNE         CLOUDY    79  69  69 SE7       29.85F
CAMERON        MOSUNNY   82  65  57 SW7       29.83F
TEMPLE         MOSUNNY   78  65  63 CALM      29.84F
KILLEEN        SUNNY     80  62  53 E3        29.82F
KILLEEN-SKYLRK SUNNY     81  65  58 E7        29.83F
FORT HOOD      SUNNY     80  61  53 SE6       29.80F
GATESVILLE     SUNNY     79  61  53 CALM      29.86F
HAMILTON       SUNNY     79  51  37 E6        29.87F
LAMPASAS       SUNNY     81  61  51 E6        29.84S
$$

TXZ095>097-106>112-122>126-135>138-148>153-164>167-272300-
EAST TEXAS

CITY           SKY/WX    TMP DP  RH WIND       PRES   REMARKS
PARIS          MOSUNNY   66  54  63 N5        29.88F
SULPHUR SPRNGS SUNNY     68  57  67 N5        29.90F
MOUNT PLEASANT SUNNY     74  59  59 NW10      29.87S
GILMER         PTSUNNY   76  64  64 NW3       29.84S
MINEOLA        MOSUNNY   77  61  57 NW8       29.85F
TYLER          MOSUNNY   80  60  50 W6        29.83F
LONGVIEW       MOSUNNY   78  66  66 SW9       29.83F
MARSHALL       SUNNY     77  64  62 W8        29.86F
ATHENS         MOSUNNY   79  61  53 CALM      29.82F
PALESTINE      PTSUNNY   80  68  65 SE7       29.85F
JACKSONVILLE   SUNNY     78  66  65 S6        29.87F
HENDERSON      MOSUNNY   79  65  63 S6        29.86F
NACOGDOCHES    MOSUNNY   79  66  65 NW6       29.84F
LUFKIN         PTSUNNY   81  65  58 SW7       29.84F
$$

SUPPLEMENTAL OBSERVATIONS (CENTRAL)

CITY           SKY/WX    TMP DP  RH WIND       PRES   REMARKS
DENISON DAM      N/A     68  50  52 W6          N/A
CADDO GRASSLND   N/A     73  54  49 W5          N/A
PAT MAYSE LAKE   N/A     70  57  64 W3          N/A
GREENVILLE       N/A     68  55  64 NE5         N/A
CEDAR HILL       N/A     75  54  46 N7          N/A
ATHENS           N/A     82  61  47 W1          N/A
LAKE LIMESTONE   N/A     81  66  61 S8          N/A
MCGREGOR         N/A     82  64  54 NE2         N/A
TEMPLE           N/A     81  64  57 NE1         N/A
$$

SUPPLEMENTAL OBSERVATIONS (WEST)

CITY           SKY/WX    TMP DP  RH WIND       PRES   REMARKS
MILLERS CREEK    N/A     75  46  35 E6          N/A
POSSUM KINGDOM   N/A     75  48  38 E8          N/A
LBJ GRASSLAND    N/A     79  50  36 NW3         N/A
GRANBURY         N/A     79  52  38 N5          N/A
COMANCHE         N/A     81  46  30 E5G13       N/A
HAMBY            N/A     79  46  31 NW7         N/A
IVIE RESERVOIR   N/A     82  45  26 E8          N/A
COLORADO BEND    N/A     84  48  28 S3          N/A
$$

SUPPLEMENTAL OBSERVATIONS (EAST)

CITY           SKY/WX    TMP DP  RH WIND       PRES   REMARKS
CLARKSVILLE      N/A     72  57  60 W1          N/A
TEXARKANA        N/A     79  61  53 W8          N/A
LINDEN           N/A     81  63  54 NW7         N/A
GILMER           N/A     79  63  57 N3          N/A
HENDERSON        N/A     81  66  61 SW8         N/A
LUFKIN           N/A     82  66  57 MISG        N/A
N SABINE NF      N/A     82  66  57 MISG        N/A
S SABINE NF      N/A     86  66  51 NE3         N/A
$$

SUPPLEMENTAL OBSERVATIONS ARE A COLLECTION OF AUTOMATED INSTRUMENTS
THAT ARE MAINTAINED BY A VARIETY OF FEDERAL AND STATE AGENCIES.
CERTAIN ELEMENTS...SUCH AS HUMIDITY VALUES AND SUSTAINED WIND
SPEEDS...MAY BE APPROXIMATED.




USA.gov is the U.S. government's official web portal to all federal, state and local government web resources and services.